Theta_e
324 319 313 313 310 309 304 300 295 291 285 284 282 283 288 292 291 291 292 292 293 295 296 300 297 296 296 293 293 298 300 291 290 287 289 296 306 320 327 332 338 343 342 344 344 342 342 345 347 347 348 349 351 350 349 349 349 349 351 349 349 350 351 350 351 350 350 350 350 349 349 349 348 348 348 348 347 345 345 345 344 343 342 341 340 341 341 341 340 340 340 341 342 342 343 343 343
318 314 311 310 311 308 303 294 287 282 283 283 285 285 287 289 292 289 290 291 293 301 302 306 307 307 307 307 306 304 301 308 298 303 302 305 316 322 330 335 342 341 342 344 343 342 343 345 346 348 349 349 351 350 349 349 348 348 348 348 348 348 349 349 350 350 350 349 350 350 349 349 348 347 348 347 345 345 345 344 343 342 341 339 339 339 340 340 340 340 339 340 340 340 341 342 342
314 314 312 311 308 304 297 293 292 279 283 283 282 285 288 291 290 290 289 293 298 303 300 298 298 296 298 301 300 296 296 308 311 308 312 315 318 323 327 333 343 343 343 343 343 343 343 344 344 348 349 350 351 350 349 349 348 348 348 348 347 347 347 347 349 349 349 349 349 349 349 349 348 347 347 346 346 345 345 344 342 341 339 338 337 337 339 339 339 339 339 339 339 339 340 341 342
312 314 309 307 306 297 291 286 283 284 282 279 282 287 289 290 290 290 293 296 300 296 294 299 300 301 298 296 299 302 300 307 312 312 311 317 317 323 327 331 345 345 344 342 341 342 343 342 343 347 349 351 351 349 349 349 348 348 348 348 347 347 347 347 347 348 348 348 349 349 348 348 348 348 347 346 344 344 343 342 341 339 338 336 336 337 338 339 338 338 337 337 338 338 339 340 341
313 314 308 305 300 298 289 286 282 280 283 281 284 285 288 288 291 290 294 294 293 292 293 296 299 302 302 301 300 296 301 304 304 311 311 311 317 322 328 330 346 345 344 343 341 341 343 342 344 345 350 350 350 350 349 348 348 347 347 347 347 347 346 346 347 347 347 348 348 348 348 348 347 347 346 344 343 343 342 341 340 339 336 334 334 336 338 338 338 337 337 337 337 339 339 340 340
308 306 307 304 301 297 292 288 287 286 285 285 285 289 287 289 291 289 291 291 292 292 292 296 298 298 304 307 306 304 309 303 309 312 312 316 323 324 327 330 345 344 345 345 342 339 341 341 345 346 349 350 350 350 349 349 347 347 346 346 346 346 346 346 346 346 346 347 347 348 347 347 347 346 345 343 342 342 341 340 339 337 335 332 332 335 337 338 339 337 337 336 337 338 339 340 341
310 301 301 301 296 295 290 283 283 282 290 287 290 288 291 289 291 290 293 295 294 298 295 300 301 299 297 301 301 309 313 314 313 316 317 321 322 324 326 333 344 344 345 346 344 340 340 340 345 349 348 349 350 350 350 350 348 347 346 346 346 346 346 345 346 346 346 347 347 347 347 347 346 345 344 343 343 342 341 340 338 336 334 332 331 333 336 338 339 338 337 336 336 338 338 339 340
307 307 299 293 289 287 284 283 285 282 289 287 290 290 290 290 289 290 291 292 293 296 301 299 293 294 295 301 296 307 304 312 314 311 315 320 321 324 328 339 343 343 345 345 345 342 341 339 345 347 348 349 350 349 349 349 348 347 347 345 345 345 346 345 346 347 347 347 347 347 347 346 345 344 343 342 342 341 340 339 338 335 332 331 331 332 335 338 338 338 337 336 336 337 338 338 339
301 301 296 293 288 285 282 285 287 286 286 288 288 290 300 290 288 289 291 290 293 294 299 299 294 296 294 300 299 303 303 306 302 305 319 322 323 326 332 341 342 341 344 345 344 343 342 339 341 346 345 345 347 348 348 348 348 347 346 345 345 345 345 346 346 346 346 346 346 346 346 345 345 344 343 342 341 340 340 339 337 334 331 330 330 332 334 337 338 337 337 336 335 336 337 338 339
298 299 292 290 286 286 280 285 285 288 289 289 290 293 291 289 289 290 291 293 294 295 296 294 293 295 296 298 298 303 306 302 302 318 319 327 329 330 335 337 340 342 343 344 345 345 343 342 337 340 343 343 343 345 347 348 348 347 346 346 345 346 345 346 346 346 346 346 346 346 346 345 344 344 343 342 341 341 340 339 337 334 330 328 328 331 334 336 336 336 336 335 335 335 336 337 336
294 293 292 287 283 282 284 284 281 285 290 288 288 288 290 288 290 290 290 293 291 295 296 295 298 296 298 297 297 302 299 300 316 316 313 328 329 331 335 339 341 344 343 344 343 344 343 341 338 334 341 342 344 344 342 345 347 347 347 347 346 345 345 345 346 346 346 346 346 346 345 345 344 343 343 342 341 341 341 339 337 334 330 327 327 330 333 334 334 335 335 334 334 334 334 334 332
295 290 288 281 283 283 282 285 286 287 287 288 294 292 290 290 290 292 292 294 292 293 293 296 297 296 295 292 295 297 298 307 304 306 321 328 327 328 330 330 332 333 336 342 342 342 342 341 341 339 335 336 340 342 343 344 346 347 348 348 348 346 345 345 346 345 346 345 345 345 345 344 344 343 342 342 340 340 340 338 336 334 330 327 328 330 332 332 332 332 332 331 331 332 331 330 327
290 289 287 287 285 284 283 284 287 291 284 286 291 294 290 291 292 291 290 290 290 291 294 293 295 296 293 293 294 295 301 307 302 310 322 321 321 321 322 322 323 323 326 329 332 330 331 334 337 341 337 332 333 335 337 341 342 345 346 347 346 347 347 347 346 346 345 345 344 344 344 344 343 342 341 341 340 340 339 337 334 333 331 328 328 329 329 329 328 327 328 328 328 329 329 327 323
292 290 287 288 282 283 284 285 283 287 287 288 289 291 291 292 292 290 291 292 291 291 293 294 297 294 294 292 293 295 294 303 303 320 315 316 317 318 319 319 321 321 321 323 323 325 324 326 327 329 335 339 339 333 331 336 339 342 343 343 344 344 345 346 345 345 344 344 343 342 341 341 342 342 341 341 340 339 338 337 334 332 332 329 327 327 326 325 325 325 326 326 325 326 326 325 322
295 289 286 283 282 285 284 286 288 285 287 287 294 292 292 293 289 289 291 291 292 292 295 296 296 295 293 293 289 293 296 302 309 315 312 314 315 316 317 317 318 319 319 320 320 319 320 322 322 325 327 333 340 338 337 335 333 337 338 339 341 342 343 342 343 340 340 341 340 338 337 336 335 336 337 339 338 336 335 334 334 332 331 331 328 327 326 325 323 322 324 324 324 323 323 323 321
292 290 285 285 285 284 286 285 283 285 288 288 292 289 292 293 291 293 292 293 293 295 294 297 295 293 294 293 294 292 295 306 315 311 312 313 316 316 315 315 315 316 318 316 319 317 318 318 319 322 324 324 330 338 338 338 331 331 335 334 335 337 339 340 338 335 333 333 333 332 330 331 329 330 329 332 332 335 333 331 333 332 331 330 329 328 327 326 324 321 320 321 322 322 322 321 320
292 288 286 281 286 285 286 287 286 287 286 288 289 292 293 293 293 294 294 293 295 295 293 294 295 296 293 292 295 296 301 309 314 312 311 311 312 313 315 315 315 315 314 315 316 316 316 317 316 318 321 323 326 329 339 339 335 328 331 329 329 332 334 334 334 326 324 323 325 323 326 334 333 332 332 330 325 328 325 327 332 333 331 329 328 328 327 326 325 323 320 320 319 317 314 315 316
290 285 283 285 281 284 287 289 289 287 289 290 291 290 291 291 293 296 295 294 291 292 294 293 294 296 295 295 296 298 302 316 312 312 307 307 309 312 312 311 312 312 312 313 313 313 313 315 316 317 318 320 322 325 334 339 335 332 337 335 333 330 327 325 329 332 330 330 321 328 334 332 334 333 332 330 327 326 326 325 329 333 331 330 329 329 328 326 325 325 322 321 319 315 310 301 303
287 282 281 286 283 288 290 288 290 290 292 290 290 288 292 292 293 295 293 292 290 294 294 291 293 294 300 299 298 304 310 315 310 308 306 307 309 314 312 306 309 311 311 311 312 312 312 313 314 315 317 318 320 324 325 338 337 336 338 336 333 327 329 329 333 332 333 331 331 333 332 333 334 333 331 329 327 323 326 325 328 330 331 329 330 330 330 327 325 324 322 320 317 313 305 303 302
288 286 288 280 286 287 288 288 290 290 290 291 290 291 291 293 293 293 294 290 291 292 291 292 292 294 296 298 299 302 311 312 306 305 304 302 302 309 308 307 307 308 309 310 310 311 312 312 312 314 316 317 318 322 322 332 338 337 338 337 334 331 332 331 332 334 333 333 333 333 333 332 333 333 328 324 326 328 325 323 326 326 327 325 324 322 325 325 324 323 320 316 312 308 305 305 304
291 286 281 290 286 292 293 287 289 288 290 290 289 290 292 293 291 293 289 292 291 291 290 295 294 293 296 297 297 299 308 309 302 302 301 300 299 299 303 305 307 307 307 308 308 309 310 310 310 312 315 317 319 321 323 323 333 337 337 337 335 335 333 332 333 333 333 333 333 333 334 332 333 332 330 328 329 329 328 328 326 326 324 322 319 316 314 313 312 310 310 309 307 307 307 306 305
287 290 288 288 286 292 293 288 288 288 288 289 288 292 292 292 293 290 291 291 291 292 293 293 293 294 298 298 298 297 303 305 302 300 301 301 300 300 300 301 302 302 303 306 307 307 308 309 310 311 313 317 320 320 321 322 327 335 336 336 335 335 334 333 333 332 332 332 332 333 333 332 332 331 330 329 330 330 329 328 326 327 324 321 318 316 314 313 311 310 309 308 307 307 307 306 306
292 291 288 287 287 293 291 289 290 287 289 289 289 292 292 292 292 288 290 293 291 290 291 290 291 293 298 298 297 298 301 303 301 301 300 299 298 298 298 298 299 303 300 302 303 304 305 306 309 312 313 317 320 322 322 327 329 333 336 336 335 333 334 333 333 332 332 331 330 331 332 331 330 329 328 326 326 328 328 327 326 327 325 322 319 318 317 315 313 312 310 309 308 308 308 307 307
288 291 289 293 288 293 290 292 288 287 290 289 290 292 293 290 293 290 289 292 289 291 291 291 291 295 298 298 297 300 301 302 301 300 298 299 299 300 299 300 299 299 301 302 301 302 303 304 306 310 314 316 319 321 328 328 329 329 331 334 333 330 331 330 329 330 330 331 330 329 328 329 330 328 327 327 324 324 325 326 326 326 326 324 322 322 319 317 315 314 313 311 310 310 309 308 306
291 292 291 291 289 289 289 288 287 287 289 290 290 293 293 289 290 290 291 292 292 293 293 294 295 296 296 297 297 296 297 296 298 296 297 296 296 298 297 296 299 301 302 301 302 302 304 305 306 308 310 315 320 324 327 327 325 325 326 326 326 325 326 325 327 327 327 327 329 329 328 329 328 327 326 324 323 323 323 324 324 323 323 323 323 322 320 318 317 315 314 313 312 311 310 308 306
292 293 290 290 293 289 289 291 288 288 291 290 293 291 289 289 290 292 295 290 291 292 294 294 295 295 295 296 296 296 296 297 295 296 297 295 295 297 297 297 299 301 302 303 303 304 306 311 310 309 310 317 322 326 325 323 322 322 321 320 321 320 322 323 324 324 324 324 325 327 327 327 326 325 323 322 322 321 320 320 320 319 319 320 321 320 320 319 317 316 315 313 312 311 309 308 305
290 290 290 292 291 290 291 293 290 289 292 290 292 290 291 290 291 292 290 291 291 293 292 292 294 295 295 295 295 294 296 296 297 295 295 295 294 296 296 296 298 300 303 304 306 308 310 311 310 310 315 318 323 321 320 319 318 317 318 318 318 318 319 319 320 321 321 321 321 323 324 324 323 322 321 320 318 317 318 318 317 317 317 318 319 317 317 317 316 314 313 311 310 309 308 307 305
290 291 290 291 288 290 290 290 291 291 295 288 292 290 289 290 290 293 294 291 292 292 292 292 292 293 294 293 294 294 295 294 295 294 298 295 297 296 296 298 298 300 302 304 307 308 310 310 311 312 316 319 318 317 316 316 315 315 315 315 315 315 316 317 317 317 317 319 320 320 321 321 320 320 318 317 316 315 314 314 314 314 314 315 315 314 312 312 310 309 308 308 308 307 306 305 304
291 292 294 290 287 292 290 292 291 291 293 289 291 291 289 289 289 292 289 291 292 291 291 291 291 291 291 291 293 293 295 294 293 294 297 297 295 295 298 297 299 300 303 305 306 307 309 309 310 312 316 316 314 314 315 314 314 314 313 312 313 314 314 314 315 314 314 314 315 317 317 317 317 316 315 314 313 313 312 311 310 309 310 310 310 309 308 307 306 305 305 306 306 306 305 304 304
292 290 289 290 286 287 290 290 288 291 293 288 292 286 286 289 294 291 291 291 290 291 290 290 290 289 290 289 292 293 293 292 294 295 295 295 295 295 297 298 298 301 303 306 307 307 308 310 311 312 313 313 312 312 312 312 311 311 311 311 311 312 312 312 310 311 311 311 311 311 313 314 314 314 313 312 312 310 309 308 306 305 304 304 304 304 304 304 304 304 304 305 305 305 304 303 301
292 290 285 284 285 284 288 289 289 291 291 289 292 286 288 287 287 287 289 290 291 292 291 290 290 290 290 290 291 293 293 293 295 295 294 294 293 294 296 296 298 301 303 305 306 307 307 308 310 310 310 310 310 310 309 309 309 309 308 308 308 309 310 309 310 308 308 309 310 309 309 309 310 311 311 310 309 308 306 305 303 303 302 301 300 301 301 301 302 302 303 303 304 304 304 303 300
285 287 283 278 284 282 285 289 289 292 291 289 292 286 290 292 293 288 288 289 289 291 291 290 290 290 290 290 291 292 293 293 292 293 294 293 293 294 295 297 298 300 303 305 306 306 306 307 308 308 307 307 307 307 306 305 306 306 305 304 304 305 306 306 307 305 305 306 307 308 307 307 307 308 308 308 306 305 304 302 301 301 300 299 299 299 300 299 299 300 302 304 302 302 301 300 299
280 286 281 285 283 281 288 290 287 289 289 291 291 289 285 289 288 286 289 289 289 289 289 289 290 290 290 291 291 292 292 293 292 292 292 293 293 294 296 297 299 302 305 305 305 305 305 306 306 306 305 304 304 303 303 303 302 302 302 303 302 302 302 303 303 304 304 304 303 303 305 305 304 304 305 304 303 302 301 300 300 299 299 298 296 296 297 298 298 297 297 299 302 300 298 296 295
282 282 284 279 284 283 284 286 289 287 290 289 289 287 290 290 288 287 289 289 288 289 290 290 290 290 291 291 291 291 292 292 293 293 293 292 293 294 297 300 301 303 305 305 305 305 305 305 304 304 304 303 302 301 301 301 300 300 298 298 299 298 298 299 299 300 300 301 301 299 300 300 301 301 301 302 301 300 299 298 297 296 296 295 295 294 294 296 295 296 293 294 297 297 295 293 292
280 285 284 285 283 283 285 285 289 289 288 288 287 287 289 292 293 289 288 289 289 290 292 291 290 290 290 290 291 291 292 292 294 294 293 292 292 294 298 301 303 303 305 305 305 305 304 303 302 302 302 301 300 299 298 298 298 298 298 297 297 296 296 297 298 296 296 298 299 298 298 298 298 299 299 299 297 296 295 295 294 293 293 292 292 291 291 292 292 293 292 291 291 292 292 290 290
282 283 283 281 285 283 284 286 286 289 287 286 285 288 290 291 292 294 288 288 289 291 290 290 290 290 290 290 291 291 292 292 293 292 292 292 293 295 298 302 303 303 304 304 304 304 303 302 301 301 300 300 300 299 299 298 298 298 296 297 296 295 294 294 295 295 294 294 295 295 296 296 297 296 296 296 295 294 293 292 292 292 292 291 291 289 289 291 291 291 291 290 289 289 288 288 288
285 282 281 282 283 284 284 284 286 286 288 286 288 288 288 290 292 293 290 287 287 289 289 290 291 291 290 290 291 292 292 293 291 291 291 292 293 295 299 302 303 303 303 303 303 303 302 301 301 299 299 299 299 299 299 300 299 298 296 296 293 293 292 292 292 292 292 293 294 295 295 295 295 295 294 294 292 292 291 291 290 290 290 290 289 288 287 288 289 290 290 290 290 288 285 284 284
287 283 285 285 283 286 287 289 288 287 288 283 284 285 287 289 291 292 289 286 289 289 290 290 291 291 292 291 291 291 292 290 289 290 290 290 292 294 299 302 302 302 302 302 302 302 302 301 301 299 299 299 299 300 299 299 299 299 295 292 291 292 293 291 290 291 292 293 293 292 293 293 293 293 292 292 291 291 290 289 289 288 288 288 288 287 286 288 287 288 288 286 284 285 282 282 283
284 287 283 284 284 284 287 286 286 287 287 287 285 286 289 289 290 291 290 290 291 291 292 293 293 293 292 292 292 292 290 291 290 291 290 291 292 294 298 301 302 303 302 302 303 302 301 301 300 299 299 299 300 299 297 294 295 295 294 293 291 289 291 290 289 290 292 291 291 291 291 291 291 291 291 291 290 289 288 288 287 287 287 287 285 284 284 284 284 285 287 287 284 282 283 283 282
285 282 284 285 282 285 283 283 286 288 289 284 282 284 287 289 291 291 292 292 291 292 292 292 293 293 293 293 293 293 292 292 290 290 290 290 292 294 297 301 302 302 301 301 301 301 301 301 300 299 299 299 298 296 294 292 291 291 291 291 291 290 288 290 290 290 290 291 289 289 289 290 289 289 289 289 288 287 287 287 286 285 284 284 284 284 283 282 283 283 284 286 286 282 280 281 282
283 285 283 283 284 285 286 285 285 285 287 284 286 286 287 290 291 292 292 288 290 293 291 291 291 292 294 293 292 293 293 292 291 290 290 290 291 294 297 300 302 301 301 301 301 301 301 300 300 300 299 297 295 293 292 291 290 289 289 289 289 288 289 289 289 287 287 288 287 287 287 288 288 288 288 288 287 286 286 285 284 283 283 283 283 283 282 281 281 281 281 282 282 283 279 279 282
281 283 288 288 286 286 284 284 287 283 281 283 285 281 278 281 286 289 289 286 289 290 290 293 294 293 291 291 293 293 292 292 292 291 291 291 292 293 297 300 301 301 301 300 300 301 301 301 300 298 297 294 293 292 292 292 291 289 289 289 288 288 287 288 288 286 286 286 285 285 286 287 287 287 286 286 285 285 283 283 283 283 283 283 283 282 282 282 281 281 281 281 281 281 282 280 279
284 284 286 289 287 286 286 285 285 279 280 284 283 282 279 282 288 290 285 285 289 292 290 293 293 293 292 292 293 292 292 290 291 291 291 291 291 293 297 300 301 301 301 301 300 300 301 300 298 296 295 293 292 291 292 292 291 291 292 292 291 290 288 285 285 285 285 284 285 285 285 285 285 285 284 283 283 283 283 283 283 283 282 282 283 282 282 281 281 281 281 281 281 283 281 280 280
282 283 283 286 285 285 284 284 285 282 280 283 284 283 282 282 288 291 288 289 291 291 293 293 294 294 293 293 293 292 291 291 291 291 291 291 292 293 296 300 301 301 301 299 298 299 299 297 296 295 293 292 292 292 292 292 292 292 293 291 291 290 288 284 284 284 284 284 284 284 283 283 282 282 282 282 282 283 282 282 282 282 282 282 283 282 281 281 281 282 281 281 280 280 280 280 277
283 286 283 283 285 284 284 284 282 282 281 280 282 283 282 280 281 284 285 286 287 290 292 293 295 296 295 293 293 292 292 291 291 291 291 291 291 293 296 300 302 302 300 298 296 296 297 296 295 294 293 292 291 292 292 292 293 293 291 290 287 286 285 284 284 285 284 284 282 281 281 281 281 281 281 282 281 282 283 282 281 281 281 281 282 281 281 281 280 280 280 280 280 280 280 279 280
286 284 284 283 282 282 281 281 284 280 278 279 282 282 279 284 282 285 282 286 287 290 293 294 295 296 294 293 292 291 290 289 290 291 291 291 292 293 297 300 302 301 299 297 295 295 294 294 294 293 292 292 292 292 292 292 292 291 290 288 285 284 284 284 284 283 282 281 281 280 280 280 280 281 281 281 281 281 281 281 281 281 281 281 281 280 280 280 280 280 280 280 279 279 278 279 279
287 285 287 285 281 279 278 279 278 279 276 283 283 283 284 281 282 286 286 287 289 292 291 294 295 294 291 290 291 289 288 288 288 289 289 290 291 293 297 299 301 300 297 296 294 294 293 293 293 292 292 291 291 292 292 291 290 291 289 287 285 284 284 283 282 281 281 280 280 280 280 280 280 280 280 280 280 281 281 281 281 280 281 281 280 280 279 279 279 279 279 279 279 279 279 279 279
288 286 282 286 285 278 279 272 275 275 277 282 280 283 284 280 280 283 287 286 286 290 291 292 294 293 290 289 288 288 287 287 287 288 288 289 289 291 296 298 300 298 296 295 294 294 293 293 292 291 290 291 291 291 290 289 290 289 289 287 286 285 284 283 282 281 281 280 280 280 279 280 279 280 279 280 280 280 280 280 280 280 280 279 279 279 279 279 278 279 278 279 278 278 279 279 278
286 285 287 280 274 272 272 272 275 273 278 278 278 281 281 283 287 284 285 289 290 288 291 294 293 292 291 289 287 286 286 285 287 287 288 288 290 291 294 298 299 296 295 294 294 293 293 292 292 290 289 290 290 289 288 288 288 288 287 286 285 285 284 283 282 281 281 281 280 280 279 279 279 279 279 279 279 279 280 279 279 279 279 279 279 279 278 278 278 278 278 278 278 278 278 278 277
286 287 283 279 273 272 269 266 264 269 276 278 281 282 281 281 285 291 294 295 295 293 291 292 291 292 293 290 286 285 285 285 287 287 288 289 290 291 294 298 298 296 295 294 293 293 293 292 292 291 290 290 289 288 288 287 287 287 287 286 286 285 284 283 282 282 281 281 281 280 280 280 280 280 279 279 279 279 279 279 279 279 279 279 279 278 278 278 279 278 278 278 277 277 277 277 277
289 285 289 284 278 271 267 265 275 278 276 276 278 277 276 277 283 288 290 289 285 288 289 289 288 289 289 285 284 284 284 284 286 287 288 289 290 291 293 297 297 296 295 293 293 293 292 291 291 291 289 289 289 288 287 286 286 286 286 286 285 284 283 283 282 282 282 281 281 280 280 280 280 280 280 279 279 279 279 279 279 279 279 279 279 279 279 278 278 278 278 277 277 277 277 277 276
286 285 284 280 283 278 278 273 270 270 270 272 273 280 280 283 285 286 285 285 286 287 290 289 290 291 288 287 285 284 285 285 285 287 287 288 289 290 292 295 296 296 295 293 292 292 292 291 290 290 289 288 288 287 287 286 285 286 285 285 284 284 283 282 282 282 281 281 281 281 280 280 280 280 279 279 279 279 279 279 279 279 278 278 278 278 278 278 278 277 277 277 276 278 276 276 276
284 286 285 285 283 284 274 273 271 272 270 278 272 280 282 284 287 291 292 286 288 286 287 288 291 293 290 291 287 283 285 285 285 287 288 288 288 289 292 294 295 295 294 293 292 292 292 291 290 289 288 288 287 287 286 286 285 285 284 284 283 283 282 281 281 281 281 280 280 280 280 279 279 279 279 279 279 279 279 279 278 278 278 278 278 278 278 278 278 277 277 276 276 276 276 275 275
285 281 284 285 284 285 282 277 270 269 273 276 275 281 282 279 283 282 286 287 290 288 289 290 289 288 288 292 289 284 285 286 286 287 286 287 288 289 291 293 293 294 294 293 293 292 292 291 290 289 287 286 286 286 285 285 285 284 284 283 282 282 282 281 281 281 280 280 279 279 279 279 279 279 279 279 279 278 278 279 278 277 277 278 278 277 277 277 277 276 276 276 276 276 275 275 275
285 282 288 288 281 279 279 275 275 268 270 274 275 276 279 282 285 285 285 284 289 290 291 288 289 290 290 291 287 283 283 284 285 285 286 287 288 289 290 292 292 293 293 293 293 292 292 291 290 289 287 287 286 286 285 285 285 284 284 283 282 281 281 281 280 280 280 280 279 279 279 279 279 279 279 279 278 278 278 277 278 277 277 277 277 276 276 276 276 275 275 275 275 275 275 274 274
287 288 287 286 284 276 277 281 274 276 270 267 277 273 283 283 284 285 289 288 289 288 287 289 291 291 292 291 287 283 284 285 286 286 286 287 287 288 289 290 291 291 291 292 291 291 290 290 289 289 288 287 286 285 284 284 284 283 283 282 281 281 281 280 280 280 280 280 279 279 279 279 279 279 278 278 277 277 277 277 277 277 276 276 276 275 275 275 275 275 275 275 274 275 274 274 274
284 285 283 286 281 283 281 280 277 277 266 267 270 278 284 283 286 286 289 289 289 289 290 290 291 292 290 288 286 285 285 285 286 286 286 286 287 287 288 289 289 288 289 290 290 289 289 289 289 288 286 285 284 284 283 284 283 282 281 281 280 280 280 280 280 280 280 279 279 279 279 278 278 278 278 277 277 277 277 277 276 276 275 275 275 275 275 275 275 274 274 274 274 274 274 273 274
289 289 286 288 283 280 278 279 280 272 276 277 270 280 287 284 284 289 288 288 289 288 289 290 290 290 288 285 283 285 285 285 285 286 286 286 286 286 286 287 286 287 288 289 289 289 288 288 288 287 285 284 283 283 283 283 282 282 281 281 280 280 280 280 279 279 279 279 279 278 278 278 278 277 277 277 277 276 276 276 276 276 275 275 275 275 274 274 274 274 273 274 273 273 273 273 273
Wind_Speed
6 5 3 1 3 3 3 7 1 2 4 0 1 1 2 1 1 1 1 2 0 1 1 1 1 1 0 2 4 4 2 3 2 4 1 2 1 3 4 4 4 6 7 5 4 3 2 4 6 6 6 7 9 9 8 7 8 10 9 9 10 12 12 12 12 12 13 14 14 14 14 15 15 16 16 16 15 15 15 15 15 16 16 16 16 16 16 15 16 15 15 15 15 16 17 18 18
3 4 2 2 1 1 0 2 4 3 6 2 2 1 1 2 0 2 2 1 2 1 2 6 6 7 8 8 6 2 2 1 4 1 1 2 2 0 3 3 6 8 7 7 4 4 3 4 7 7 8 9 9 9 8 7 7 9 10 9 9 10 12 13 11 12 12 13 14 14 14 15 15 15 16 16 15 15 15 16 16 15 16 16 15 16 16 16 15 15 15 16 16 17 17 17 17
3 5 1 4 4 5 3 5 0 1 5 1 3 4 2 1 1 2 4 3 5 5 2 3 4 3 1 2 2 2 0 0 1 0 1 2 2 2 5 1 5 5 8 6 5 5 4 5 5 8 10 10 10 10 8 8 8 8 8 9 9 10 11 12 12 12 12 12 13 13 14 15 15 15 16 16 16 15 16 16 15 15 15 15 15 16 16 16 15 16 16 16 16 16 17 17 17
1 4 2 3 0 3 1 4 5 7 3 5 1 2 1 2 3 3 2 4 5 2 1 1 2 1 1 4 0 0 1 2 1 1 1 2 1 3 4 4 4 3 3 5 5 5 5 7 11 9 10 10 10 9 8 8 8 8 7 8 9 10 10 10 11 11 12 12 13 14 14 15 15 16 16 16 15 15 15 15 14 14 15 15 15 16 16 16 16 17 17 16 16 16 16 17 17
3 2 2 4 4 1 4 1 5 3 1 5 5 3 2 4 5 3 2 3 2 1 1 1 2 2 0 3 0 1 1 1 1 1 1 2 1 3 5 4 3 3 4 3 4 4 4 10 10 8 10 10 11 10 9 8 8 9 8 8 9 9 10 9 11 11 11 12 13 14 14 15 15 15 16 16 15 15 14 14 14 14 14 14 15 16 16 16 16 16 17 17 17 17 16 16 17
5 2 4 2 1 3 5 2 2 1 4 5 2 3 3 5 5 5 2 0 1 2 1 0 1 3 1 0 2 0 1 2 0 1 1 2 3 3 5 3 6 3 3 4 3 3 4 9 8 8 10 10 10 10 9 8 8 8 9 9 9 9 9 9 10 10 10 11 12 13 13 14 14 15 16 15 14 14 13 13 14 14 14 14 15 15 16 17 17 17 17 17 17 17 17 17 17
1 4 5 5 3 4 3 4 3 2 1 4 1 1 6 4 3 4 1 1 0 2 1 0 1 2 3 1 0 1 2 1 0 1 2 4 5 4 4 3 5 4 4 4 3 2 4 8 8 9 8 8 9 9 9 9 8 7 8 8 9 9 9 10 9 10 10 11 11 12 12 13 14 14 15 14 14 13 13 13 14 14 14 14 15 15 16 16 17 17 17 18 18 17 17 17 18
2 1 2 3 1 4 3 2 2 3 1 4 1 1 3 4 3 2 2 2 2 2 1 0 2 2 1 3 0 0 1 2 1 2 4 4 3 3 1 4 6 4 5 4 2 1 1 5 6 7 7 9 8 8 9 9 9 7 7 8 8 9 9 9 9 10 10 10 11 12 12 13 13 14 14 13 13 13 13 13 14 14 14 15 15 15 16 16 17 18 17 18 18 18 18 18 19
5 7 0 6 4 3 3 2 1 2 5 1 4 6 3 2 5 2 1 1 1 0 2 1 1 1 2 0 1 1 2 1 2 3 3 2 3 2 3 4 6 5 5 5 2 3 3 3 1 5 6 3 6 7 8 9 9 8 8 8 8 8 9 9 9 9 10 10 10 11 12 12 13 13 13 13 12 12 13 14 14 14 15 15 15 16 16 16 17 18 18 18 18 18 18 19 19
2 1 1 3 4 3 2 1 3 2 1 1 1 0 1 2 2 1 3 2 1 3 2 2 1 0 1 2 2 1 1 3 4 1 4 3 3 2 4 4 4 6 4 5 3 3 3 5 1 4 8 8 3 4 5 7 9 8 8 8 8 7 8 9 8 9 9 10 11 11 11 12 13 13 13 13 12 12 13 13 13 14 14 14 15 15 16 16 17 18 19 19 18 18 19 19 19
0 6 2 4 5 2 2 3 3 2 1 4 4 5 4 3 3 1 0 2 0 2 0 2 1 2 1 1 3 2 3 2 2 1 3 4 4 4 4 4 4 6 5 5 4 3 3 4 5 4 4 10 8 7 9 7 9 9 8 7 8 8 8 8 8 8 8 9 9 10 10 11 12 12 13 12 12 12 12 13 13 13 14 15 15 16 16 17 17 17 18 19 19 19 19 19 18
1 1 2 4 2 5 4 5 1 3 4 2 1 0 2 5 2 1 2 5 1 0 2 2 1 5 2 2 2 1 5 1 1 1 2 4 5 6 5 4 6 7 5 4 4 3 4 4 3 3 1 4 7 6 4 5 7 8 7 6 7 8 8 8 7 8 8 8 8 9 11 11 11 12 12 12 11 11 12 12 13 14 15 15 16 16 17 17 17 18 18 18 18 18 18 18 18
3 2 7 6 1 0 2 4 2 1 2 3 3 0 2 4 3 5 4 2 1 4 1 3 0 0 1 2 3 4 1 1 1 2 2 5 5 4 5 5 7 7 7 5 7 6 6 6 4 2 2 4 4 5 5 4 5 7 6 6 6 7 6 6 7 7 8 8 7 8 8 9 9 11 11 12 11 11 12 12 13 14 15 16 17 17 17 17 18 18 18 18 18 18 18 18 18
5 5 6 2 1 4 5 3 1 4 3 3 2 0 1 2 3 5 6 4 2 3 1 1 2 2 0 2 3 2 4 2 1 3 3 6 4 5 6 5 7 7 7 7 6 4 6 5 5 5 4 2 3 4 6 4 4 3 6 5 6 6 6 6 5 6 7 7 5 5 7 8 9 10 10 10 11 11 11 10 12 14 15 16 17 17 17 17 17 17 17 17 18 18 18 18 18
2 2 7 5 2 2 1 5 8 5 5 3 1 2 1 2 3 4 4 5 4 1 2 0 1 2 4 5 5 5 4 1 2 2 5 6 6 6 5 5 6 6 7 6 6 4 5 5 6 6 6 5 2 3 3 5 3 3 5 5 5 6 7 6 6 7 7 7 7 6 7 9 8 9 9 9 9 9 9 10 12 13 15 15 16 16 17 17 17 17 17 17 17 18 18 18 18
5 6 5 4 2 4 3 1 1 3 5 4 1 1 4 1 0 2 3 1 1 1 0 3 2 1 0 5 1 4 2 4 3 3 5 6 4 5 5 4 5 4 6 5 6 4 3 6 5 5 6 5 4 1 3 4 5 4 2 7 7 5 5 6 7 8 8 7 8 8 8 7 7 7 10 7 9 9 9 8 10 11 14 14 15 16 16 16 16 17 17 17 17 17 17 17 17
2 4 3 4 2 3 3 3 6 4 3 3 3 1 3 1 0 0 0 1 5 0 3 0 1 1 3 3 2 3 2 2 5 4 4 4 3 3 3 2 3 3 4 4 4 4 4 7 7 5 5 5 4 4 1 4 4 4 5 7 7 7 6 6 8 10 9 7 7 7 6 5 4 5 6 5 7 6 9 10 9 10 12 13 13 14 15 15 16 16 17 17 17 16 15 16 16
1 3 7 1 3 4 6 7 9 2 4 5 3 4 4 2 0 1 0 5 3 1 0 4 2 1 2 2 2 3 2 5 5 5 4 4 1 2 3 2 2 1 2 3 3 5 5 6 6 5 4 4 4 3 2 3 3 3 3 4 3 5 4 6 6 6 7 5 6 5 4 4 4 4 4 5 4 5 7 9 9 9 10 10 11 13 14 15 16 16 16 16 16 15 13 8 8
5 2 3 6 5 5 7 4 6 2 1 3 2 1 3 3 6 2 1 1 1 0 2 2 3 3 1 1 2 2 4 5 5 5 6 6 4 6 5 1 1 2 3 4 4 7 5 4 4 3 4 5 6 5 4 2 5 3 3 3 3 3 2 3 3 7 4 5 4 4 4 3 4 4 4 4 5 6 8 9 10 10 9 9 10 13 13 15 16 16 16 15 14 13 9 7 7
1 3 1 2 7 2 5 5 5 2 4 5 4 1 1 1 1 1 1 2 0 4 4 1 3 5 5 2 0 2 4 5 4 6 6 5 4 4 4 3 1 2 0 2 4 3 2 4 4 4 3 4 4 3 3 3 3 2 2 3 4 5 3 3 4 5 5 4 5 4 4 3 4 3 5 7 7 4 4 8 11 11 11 11 11 8 10 12 14 14 14 12 8 6 7 7 7
0 2 3 2 4 1 2 6 4 4 2 4 4 1 0 1 2 2 3 3 4 7 7 8 10 10 8 6 3 2 5 6 4 4 5 4 2 1 2 2 2 1 1 2 1 3 5 4 3 3 3 3 3 3 3 4 2 3 3 4 4 4 4 4 4 4 5 5 4 3 5 4 4 4 4 4 5 5 4 5 5 5 6 6 7 6 6 7 7 7 7 7 6 6 7 7 7
3 1 1 1 1 0 1 4 3 4 2 5 2 6 4 1 1 2 7 6 8 7 6 9 6 5 9 10 7 3 5 6 6 5 7 6 6 5 1 0 1 1 2 2 3 4 5 5 3 3 4 3 2 2 3 4 1 3 3 4 4 4 4 4 4 4 4 5 4 4 5 5 4 4 3 3 5 5 5 4 4 4 6 5 5 6 6 6 6 6 6 7 6 6 7 7 7
1 1 1 3 1 0 1 2 3 5 3 5 4 3 3 3 1 1 5 9 5 2 3 4 5 4 6 4 6 6 6 8 7 8 6 6 5 3 3 2 1 1 1 1 2 2 3 4 5 4 3 2 3 2 2 2 1 1 3 4 4 4 3 4 4 3 4 4 4 4 4 4 4 3 3 4 2 2 4 4 4 4 5 5 4 6 7 5 6 7 7 6 6 7 7 7 8
6 2 1 0 1 1 2 1 3 1 8 4 3 1 2 2 4 1 3 8 3 3 3 4 4 2 6 8 6 8 8 9 8 5 4 5 5 6 5 4 2 0 0 2 3 3 4 4 3 3 4 3 2 2 0 2 2 2 1 4 4 4 4 4 2 5 3 5 5 4 5 3 4 4 4 4 5 4 3 6 4 5 5 4 4 6 7 6 6 6 7 6 7 7 9 7 8
2 1 0 1 0 2 2 1 2 0 0 1 2 2 1 4 2 1 7 8 1 1 2 3 4 5 4 6 7 5 5 4 5 4 1 1 2 1 1 1 1 0 1 2 2 3 4 3 3 4 3 4 3 1 1 2 3 4 4 2 3 6 5 2 6 4 6 3 5 6 6 4 4 5 4 5 5 6 6 4 5 5 5 4 4 5 7 6 6 6 6 7 6 7 8 8 8
0 0 1 1 0 4 1 0 1 2 0 1 1 2 2 2 3 4 12 3 1 1 4 3 5 5 6 6 6 6 6 6 4 4 5 2 1 3 2 2 1 2 1 1 2 3 3 3 4 4 3 4 3 3 3 2 4 5 4 2 2 5 5 5 2 6 3 5 1 7 7 6 5 5 5 4 5 5 5 5 5 5 6 4 5 6 5 6 6 6 7 7 7 7 8 7 8
2 1 1 1 1 2 3 1 1 0 0 0 2 2 1 3 2 9 1 1 3 4 3 1 5 6 5 4 4 4 6 7 7 3 2 2 3 4 4 2 2 3 1 1 2 2 2 3 4 3 3 5 3 4 4 2 3 5 4 2 4 5 5 1 4 5 3 6 2 3 7 7 6 6 6 4 6 5 5 5 5 4 6 5 6 7 5 6 6 6 7 7 7 7 7 7 8
3 1 1 1 7 1 1 1 1 1 1 2 3 2 1 2 2 11 1 2 1 5 3 2 2 4 4 4 4 4 4 4 3 4 8 7 8 6 5 5 4 3 2 2 2 2 3 3 4 3 3 2 3 5 5 4 2 6 4 4 5 5 5 1 5 4 3 6 5 3 6 6 6 6 7 6 6 7 6 6 5 6 6 6 6 7 7 6 7 7 8 8 8 8 8 7 8
0 0 1 3 7 2 1 3 1 1 2 3 3 1 3 0 8 5 1 1 1 3 4 4 4 4 4 4 4 4 6 4 4 5 8 6 4 4 5 4 4 3 2 2 2 2 4 3 2 3 1 3 3 5 5 4 3 4 6 4 5 6 5 2 5 5 4 5 6 5 6 7 5 7 7 7 8 7 7 7 6 6 6 6 6 8 9 7 7 8 8 7 8 9 9 8 7
0 5 1 4 6 4 2 0 1 3 1 4 2 5 7 9 16 1 0 5 3 2 4 4 4 4 4 4 5 5 5 4 7 8 5 5 4 5 5 4 3 3 2 2 1 3 1 2 1 1 3 4 4 4 5 5 3 2 7 3 6 7 5 3 5 5 5 5 7 6 5 7 7 6 8 8 7 7 6 7 7 6 6 6 5 5 7 6 7 8 7 8 7 8 9 8 8
1 1 4 1 2 3 2 1 0 4 1 3 1 4 8 6 9 4 2 5 8 7 7 5 5 5 5 5 5 6 7 6 7 6 6 5 4 4 5 3 3 3 2 2 2 2 1 1 1 2 4 5 5 5 6 6 4 2 6 5 5 7 4 4 3 5 5 5 7 6 5 5 7 7 7 8 7 7 7 7 7 6 6 7 7 5 7 6 7 7 6 10 8 8 8 8 8
2 1 3 3 3 4 8 2 5 4 1 1 2 4 11 8 10 2 1 4 4 7 5 6 6 6 6 6 7 7 8 5 6 6 6 5 4 4 4 4 3 3 3 2 1 1 1 2 2 3 5 6 5 6 6 5 6 3 6 5 5 7 6 5 4 4 4 6 7 6 5 6 7 7 7 7 8 7 7 7 6 6 7 7 6 6 6 9 7 7 4 8 11 8 9 8 7
5 1 3 1 1 4 7 0 2 2 2 1 4 7 4 4 3 3 1 4 3 5 6 6 8 8 8 8 7 7 7 8 7 8 7 6 5 4 4 4 3 3 2 3 3 2 2 3 4 4 6 5 6 6 7 6 7 4 7 5 7 7 6 5 4 3 5 7 7 5 4 4 8 7 7 6 8 8 7 7 6 6 6 8 7 5 7 5 8 8 6 4 8 10 9 10 8
3 2 3 3 2 1 2 5 0 1 1 4 2 3 9 5 4 1 1 5 4 6 10 9 9 8 8 6 7 8 8 8 12 10 9 6 5 5 4 4 3 3 2 3 4 4 4 4 4 4 5 5 4 5 6 6 6 6 5 6 8 6 6 5 4 4 5 7 7 5 5 5 7 8 7 6 8 8 8 7 6 6 7 7 8 6 7 5 6 8 9 6 6 10 9 10 9
2 1 1 5 1 2 5 1 1 2 1 2 1 5 13 14 11 7 5 5 6 10 11 9 7 7 8 9 8 10 10 11 15 7 6 6 5 4 4 4 4 3 3 5 4 4 5 5 4 5 5 6 5 5 7 7 7 6 6 8 9 6 6 7 5 5 4 7 7 5 5 6 6 8 7 7 9 8 8 7 6 5 6 7 8 7 7 7 7 7 11 10 9 8 9 8 9
2 7 5 3 2 2 3 7 3 4 2 4 5 8 10 12 13 12 4 5 8 11 6 7 9 7 8 9 11 10 12 15 7 5 6 6 6 6 5 5 4 4 5 5 5 5 5 5 4 4 4 6 5 6 4 6 6 6 10 8 9 7 7 7 6 6 4 6 7 5 6 7 6 7 7 8 9 8 8 6 7 5 6 6 8 9 7 7 10 12 10 13 12 10 7 6 7
5 4 3 3 3 5 4 4 5 0 0 8 9 8 8 11 12 13 4 4 4 7 10 11 10 9 10 11 12 13 12 15 3 7 8 8 8 6 6 6 6 6 6 6 7 7 6 6 8 7 5 6 5 7 4 6 7 6 7 6 7 5 4 3 5 4 4 5 7 6 7 7 7 7 7 7 8 8 7 6 7 7 6 7 9 9 7 8 7 10 9 8 12 12 6 4 3
1 3 2 4 2 8 4 1 2 1 3 4 1 4 10 13 13 14 1 3 9 11 12 13 15 13 12 13 14 14 13 0 4 5 6 6 5 6 7 7 8 9 7 8 8 8 8 8 9 7 6 5 5 6 4 5 2 1 7 6 7 5 6 4 5 4 4 7 7 5 6 7 7 7 7 7 7 8 8 7 7 7 7 8 8 8 7 7 8 8 10 9 4 6 4 3 3
2 3 2 1 7 5 9 4 3 1 2 9 4 8 11 11 13 13 8 10 9 8 12 15 14 14 12 12 13 12 7 10 6 8 6 8 8 8 8 8 8 9 8 9 8 9 8 8 7 8 7 6 4 5 4 5 4 5 5 6 4 6 5 4 4 4 5 9 8 4 7 6 7 7 6 7 8 7 7 8 8 7 7 8 10 8 7 7 5 6 5 11 8 4 5 4 4
3 1 1 8 3 1 6 1 2 0 5 3 1 4 9 10 12 15 14 12 9 11 13 16 12 13 13 15 13 12 13 11 11 11 12 10 9 9 8 10 10 8 8 8 8 10 8 8 8 8 8 7 6 5 7 6 7 8 8 8 7 6 6 7 8 4 6 10 8 5 8 7 7 7 6 7 7 7 7 9 7 7 7 5 8 9 7 6 6 6 7 6 10 7 3 5 5
2 5 5 3 3 6 7 5 3 1 2 2 4 8 8 10 14 12 7 3 5 14 10 11 12 11 13 8 7 12 15 12 11 10 9 11 11 13 13 11 9 10 9 10 9 9 7 9 10 9 8 7 7 8 8 7 8 8 8 10 9 9 7 8 8 5 4 6 5 6 7 6 7 7 6 7 7 8 7 7 8 7 8 6 7 8 7 6 5 4 4 6 4 9 5 3 6
2 6 11 9 6 6 4 4 4 7 4 3 2 6 5 5 7 13 7 5 5 6 6 15 16 11 10 13 19 11 8 8 13 15 15 15 14 9 9 11 12 10 10 9 8 8 8 9 9 8 7 7 8 8 10 10 10 12 10 10 7 6 7 6 7 7 7 8 6 2 6 6 6 7 6 7 7 7 8 7 7 9 8 7 6 8 7 6 6 7 4 6 7 3 10 6 5
0 6 8 11 7 3 1 1 2 3 4 2 1 2 9 1 7 8 3 3 10 9 7 14 12 11 9 14 14 9 10 7 6 8 11 12 12 11 11 12 13 12 10 8 8 8 9 9 9 8 8 8 8 10 11 9 9 7 10 11 13 13 12 3 3 4 4 5 4 7 6 6 5 7 5 5 6 6 7 7 8 8 8 7 6 8 8 8 6 5 4 7 6 6 7 9 8
5 2 2 3 3 5 5 3 5 6 1 4 1 1 8 9 10 8 5 8 11 11 14 14 14 13 13 11 10 8 10 10 11 13 13 12 13 16 17 16 13 12 9 9 9 8 10 9 9 9 7 8 9 9 9 8 9 8 7 6 6 7 8 11 8 7 5 4 7 7 6 5 5 4 6 5 5 6 7 8 7 7 8 6 7 8 8 6 7 5 6 7 6 5 5 10 5
3 1 6 4 5 4 2 3 3 1 3 9 2 0 4 6 3 3 1 5 6 14 15 14 15 15 12 8 10 10 10 11 11 11 13 14 15 14 12 13 12 11 10 11 9 8 9 9 9 9 9 9 9 10 9 7 6 7 7 8 8 5 8 8 8 6 7 7 9 5 6 5 5 4 4 6 5 6 6 7 7 8 9 7 8 8 7 6 7 7 7 7 8 7 6 5 8
2 5 7 7 7 6 3 3 3 2 1 8 5 4 3 18 5 2 4 2 7 12 13 14 15 13 8 7 7 8 6 5 6 7 8 11 11 11 9 8 10 10 8 7 7 8 8 9 9 10 10 8 8 9 8 7 6 7 8 7 11 11 8 7 5 7 8 7 8 6 5 6 5 5 4 4 6 5 6 6 8 9 9 8 7 8 8 8 7 8 7 8 7 9 6 7 7
7 3 7 5 8 3 3 6 2 2 5 10 9 9 7 12 3 9 7 8 9 9 7 9 10 9 6 6 6 4 4 4 5 5 6 7 6 8 8 11 11 9 7 9 9 9 8 9 10 11 10 9 9 10 9 9 7 7 8 11 13 12 8 12 11 7 7 6 8 7 6 6 5 6 5 5 5 5 6 6 8 8 7 7 8 7 7 8 7 8 8 8 8 9 7 9 8
4 2 3 3 2 6 2 4 4 1 9 1 2 7 8 12 4 6 7 3 3 6 8 10 11 9 6 5 4 3 3 4 4 5 5 6 6 7 8 10 12 11 10 10 10 10 10 9 10 11 10 10 10 9 9 8 8 8 8 11 14 16 16 12 14 14 11 11 9 9 6 6 5 5 5 6 5 5 7 7 7 7 7 7 8 7 7 8 7 7 7 8 8 7 7 8 8
3 5 6 4 4 6 3 2 2 5 9 2 1 2 3 18 13 5 6 9 8 9 11 11 9 8 7 6 5 2 2 4 5 5 6 7 10 11 12 11 12 12 12 12 11 11 10 10 12 13 11 11 10 10 9 9 9 9 10 10 9 11 14 14 13 14 12 11 10 10 9 8 7 7 6 7 5 6 7 8 7 8 7 7 8 8 7 7 7 8 8 8 7 7 7 8 8
5 7 6 5 0 0 5 4 2 7 8 3 0 2 9 2 7 15 20 20 16 10 11 11 8 10 11 5 2 1 1 4 5 6 7 9 10 11 12 13 13 11 12 12 11 11 10 10 12 13 12 11 11 10 9 9 9 8 9 9 10 10 10 12 11 13 11 10 9 11 10 10 10 10 9 8 7 6 5 6 7 7 7 7 8 8 8 7 8 8 8 8 8 6 7 9 9
11 3 11 9 8 7 4 5 6 9 6 2 5 1 8 4 3 1 8 6 5 7 7 5 6 10 8 4 1 1 2 4 5 7 9 10 10 11 12 12 12 12 12 12 11 11 11 11 11 12 12 12 12 13 10 10 9 9 8 8 9 8 10 10 9 10 11 11 9 9 8 7 8 8 9 7 7 7 7 7 7 9 8 8 8 8 8 8 8 8 8 8 7 6 8 9 7
3 2 5 3 10 6 6 5 3 1 4 6 2 7 4 6 3 6 4 6 6 7 9 6 11 10 6 7 4 4 4 4 5 6 7 8 9 10 10 10 11 12 13 11 12 11 11 11 12 13 14 14 13 13 12 11 10 9 10 10 10 9 8 8 7 6 7 9 10 9 9 8 7 8 6 8 6 7 8 9 8 8 8 8 8 9 9 8 8 9 8 8 8 4 8 9 7
4 6 8 6 2 5 3 2 1 1 2 13 3 9 7 8 7 11 11 5 8 5 6 7 11 13 7 9 3 4 4 5 5 8 9 8 6 8 10 10 10 11 12 13 13 13 13 13 13 13 13 13 14 13 13 12 10 10 11 10 10 9 9 11 11 11 10 8 7 7 8 7 7 7 8 6 8 6 8 9 9 9 8 8 9 8 8 8 8 9 9 9 9 6 7 8 7
8 4 7 2 2 3 4 6 2 3 4 9 3 11 8 4 14 3 1 6 12 7 10 10 8 7 7 12 4 3 6 7 8 6 5 6 8 9 9 9 9 11 13 13 13 11 11 11 13 14 13 14 12 12 12 12 13 12 12 12 10 11 11 10 9 11 9 9 7 6 6 8 8 7 7 7 7 8 7 8 9 9 8 8 9 8 8 8 8 8 8 8 7 7 8 6 6
5 4 6 8 4 3 2 4 5 1 5 8 5 2 8 10 12 1 3 5 10 14 13 6 8 8 10 10 3 1 3 4 5 7 6 7 9 10 10 10 9 9 10 11 11 10 10 9 10 12 15 14 15 12 10 9 11 10 10 12 12 9 7 8 7 7 8 9 9 8 8 8 7 7 7 8 8 8 7 7 7 8 7 7 7 7 7 7 8 9 8 8 6 7 8 8 5
1 3 4 1 2 1 6 7 3 5 6 1 9 5 14 5 7 8 9 12 10 6 3 8 12 11 10 8 3 4 6 7 7 7 8 8 8 9 11 11 11 11 11 10 11 10 11 10 10 10 9 11 12 12 12 12 11 9 9 10 9 9 9 8 8 9 9 9 9 9 8 8 8 7 6 6 7 7 7 7 6 7 6 5 6 5 6 7 7 8 8 8 6 7 8 8 6
2 3 4 1 0 2 5 1 4 4 5 4 2 11 13 4 7 8 9 9 10 8 9 8 8 10 9 5 4 5 6 6 7 7 7 7 8 8 8 8 7 6 6 8 10 12 11 10 11 11 13 11 11 11 11 11 10 9 10 11 11 9 9 8 8 8 8 8 7 7 7 6 6 6 7 7 6 6 5 5 6 6 5 5 5 6 5 6 7 8 7 8 8 8 9 7 7
14 15 13 15 10 5 4 8 3 2 3 5 4 14 15 2 3 8 7 6 7 7 6 7 8 8 2 3 4 5 5 6 6 6 6 6 6 6 6 5 5 7 8 10 10 10 11 12 11 11 10 11 12 10 10 10 9 10 12 11 10 9 9 8 9 8 8 8 8 8 7 7 7 6 6 6 5 5 5 6 7 6 5 5 5 6 6 6 8 9 7 5 7 8 8 8 7
Wind_Direction
331 333 324 347 53 97 52 1 130 338 59 316 27 27 198 344 205 41 224 338 305 268 238 52 108 56 179 216 169 151 200 101 207 130 209 236 266 278 303 257 228 145 145 151 144 155 168 184 180 172 160 149 121 119 122 122 120 117 112 105 108 108 104 101 100 101 102 102 99 97 96 95 93 88 83 78 72 67 62 56 54 53 54 54 56 58 58 58 60 62 63 64 64 66 70 73 78
323 328 21 6 46 53 313 120 94 357 38 57 224 102 244 285 84 203 207 192 211 121 165 108 90 87 66 81 105 137 45 34 174 97 273 235 312 15 332 210 196 162 152 151 149 157 168 185 190 162 152 152 129 129 131 123 119 118 114 111 112 113 109 105 101 99 102 103 104 103 99 96 93 89 85 79 72 64 58 53 51 51 53 55 56 59 59 59 60 61 63 67 68 70 72 75 82
349 7 341 23 34 71 92 36 275 41 95 136 272 206 327 105 178 231 223 200 162 158 153 106 100 68 18 38 20 62 54 97 71 45 185 328 122 289 335 284 209 171 154 152 148 157 175 152 152 165 157 151 137 136 136 129 122 115 110 110 116 118 109 106 104 101 99 98 98 99 101 101 95 89 85 79 71 64 58 53 50 52 54 56 58 60 60 60 61 62 66 70 72 73 74 78 83
80 22 121 65 168 30 55 29 81 121 113 200 301 276 164 174 224 212 247 199 160 104 287 6 56 255 104 49 162 254 3 60 131 154 31 37 146 272 297 300 158 154 142 148 151 151 164 156 167 171 161 144 142 135 136 133 126 121 114 114 112 111 107 104 104 100 98 101 100 98 96 96 94 90 84 78 72 67 61 56 53 53 56 57 60 62 63 62 63 65 69 71 74 74 76 81 85
65 355 71 104 108 6 100 114 137 103 108 201 169 269 258 207 190 217 233 230 268 263 350 204 73 353 150 125 204 128 209 277 27 160 252 262 244 274 296 299 165 155 153 137 143 148 159 159 173 165 155 149 146 140 139 138 132 125 120 116 113 108 108 105 102 103 102 100 98 97 97 94 92 90 84 79 75 69 64 60 56 55 56 58 60 63 66 66 65 68 69 72 73 72 76 83 86
64 43 6 70 60 157 70 71 54 119 227 148 116 224 221 210 180 203 262 335 283 201 202 27 176 196 21 287 170 94 211 77 233 294 179 248 319 318 283 287 149 168 159 131 147 159 155 173 161 161 156 152 148 144 141 138 135 128 127 122 115 109 107 108 105 101 100 98 98 97 95 95 94 91 86 83 77 72 68 63 60 59 58 59 61 64 66 68 70 70 70 73 73 74 78 82 84
288 48 3 34 26 45 171 119 167 177 213 161 189 242 198 199 219 121 155 85 296 81 158 241 99 101 61 297 20 218 184 193 63 208 176 282 312 306 277 218 146 158 168 151 140 170 165 162 166 156 157 153 150 143 145 133 130 129 119 117 114 110 110 110 108 103 99 96 97 97 97 97 95 92 88 85 79 74 69 65 62 60 62 60 61 64 66 69 73 73 72 72 73 76 79 80 81
63 116 331 99 325 48 46 159 154 160 341 184 230 228 230 198 154 144 188 117 220 183 27 328 4 107 261 73 170 259 348 174 232 268 268 283 293 307 222 172 152 140 166 160 147 112 136 162 172 156 156 157 148 147 142 132 127 125 121 118 119 117 117 116 110 103 100 99 101 101 101 101 101 96 93 89 83 77 71 65 61 60 59 60 61 64 66 70 73 73 73 73 74 76 79 80 79
3 86 306 69 55 29 62 73 262 228 285 276 285 210 247 198 152 132 170 244 52 84 144 241 279 73 235 31 220 250 298 237 266 259 277 311 358 331 162 159 149 130 164 134 131 143 124 224 180 149 131 124 154 147 145 140 134 136 134 127 126 128 128 121 117 111 106 109 110 108 108 108 106 103 98 93 86 80 74 67 62 62 61 60 61 63 66 70 72 72 72 72 74 76 76 75 72
44 55 247 110 134 51 32 312 90 187 250 239 240 245 185 160 158 207 180 91 177 135 213 309 152 93 123 176 317 349 132 344 300 32 345 5 11 42 108 128 141 140 133 131 159 163 150 159 160 176 153 135 174 151 133 147 141 140 140 139 135 138 137 134 127 122 123 122 121 120 117 115 112 109 104 98 90 82 77 71 68 66 65 65 64 65 67 68 70 71 72 73 74 74 73 70 68
350 20 133 75 35 111 150 214 270 315 261 319 303 234 221 149 136 148 317 146 323 157 288 230 28 145 92 259 214 244 312 323 82 67 325 3 34 39 63 92 126 139 140 137 143 146 146 128 177 294 190 160 161 150 144 178 152 145 148 145 143 140 142 138 132 125 125 122 119 117 117 116 113 110 106 100 93 85 79 76 71 67 67 68 67 67 68 67 68 68 69 69 69 70 68 67 65
24 30 12 98 146 151 218 157 237 267 305 341 251 353 201 148 119 116 167 130 215 80 151 136 244 143 87 333 293 291 324 20 85 307 339 24 46 34 54 58 63 56 51 101 115 71 126 131 136 173 334 139 127 151 178 163 155 149 148 149 141 146 145 139 135 133 127 123 123 124 124 120 115 112 109 104 95 87 81 77 72 69 68 68 68 69 68 68 67 66 66 66 67 69 69 68 66
110 94 84 81 171 109 175 110 205 305 351 274 183 21 121 117 190 190 170 112 91 114 285 209 198 85 211 195 255 320 340 234 3 36 46 60 45 47 54 59 54 47 50 43 67 56 48 55 36 48 134 156 141 144 148 156 139 141 149 143 138 140 141 140 139 134 126 122 125 126 121 116 113 117 115 108 100 91 86 80 75 73 72 70 69 69 68 67 67 67 67 68 68 69 69 68 67
116 175 122 135 44 121 134 166 0 153 254 245 269 286 188 142 247 171 139 117 198 157 237 273 150 142 138 2 305 276 245 248 17 76 79 72 62 69 58 55 59 59 50 49 49 37 56 43 36 21 24 214 135 162 135 144 108 108 123 122 127 134 134 129 123 119 124 115 92 90 105 110 118 119 118 111 105 96 90 87 83 80 78 76 75 73 71 69 68 68 69 70 71 71 70 69 67
109 149 82 112 63 106 239 129 197 160 227 196 204 135 129 302 99 121 171 140 230 210 304 1 196 118 238 151 277 220 222 177 125 99 88 82 68 64 68 60 65 59 53 47 42 16 49 50 46 32 19 351 122 143 131 156 115 137 110 95 111 133 134 130 125 119 129 121 105 102 111 111 112 114 116 111 104 101 91 88 91 87 85 83 83 81 77 74 72 73 73 72 71 71 71 69 68
138 88 81 98 166 139 227 123 30 103 251 185 292 168 91 332 216 126 245 154 175 334 80 193 10 200 246 183 237 258 232 119 131 87 85 81 79 70 69 53 57 50 59 35 37 5 36 67 50 37 21 357 345 15 156 154 157 165 124 84 80 77 117 129 119 110 107 100 93 92 90 92 89 99 115 117 115 101 95 96 96 94 92 89 87 86 83 79 77 76 77 76 73 71 69 68 67
57 84 59 51 155 167 216 146 143 194 239 248 284 183 150 187 290 173 173 80 120 194 9 178 219 1 206 210 279 284 298 153 109 84 82 73 67 73 43 50 42 60 34 49 44 5 348 56 39 32 12 344 340 2 198 153 139 160 158 114 85 80 104 115 113 102 96 96 104 104 103 86 76 107 120 123 112 105 107 104 102 99 98 94 91 88 85 82 79 78 80 79 76 70 63 58 57
54 69 114 113 196 155 201 175 185 199 132 222 206 205 118 163 152 214 305 32 63 341 52 309 315 269 224 258 305 261 264 140 128 122 118 127 100 129 120 32 31 60 16 2 31 36 16 32 36 12 346 333 3 14 335 157 132 142 145 155 140 92 72 119 125 116 116 115 115 120 109 107 107 83 120 123 110 112 108 109 103 103 101 98 95 91 87 86 84 80 77 75 75 72 65 60 52
87 125 88 198 179 231 159 195 189 116 261 177 198 136 163 204 141 212 103 286 9 88 287 18 323 304 324 293 336 90 160 140 144 142 153 163 170 180 185 132 87 5 11 5 357 15 12 16 36 9 345 342 352 9 356 262 126 134 141 137 131 91 80 112 132 120 122 127 134 116 106 118 131 101 106 132 128 132 126 117 114 107 97 88 87 86 89 90 90 87 81 77 77 76 71 69 66
195 114 166 252 204 228 204 168 192 194 139 142 165 195 140 244 132 144 223 164 29 211 213 305 264 241 223 244 344 129 165 152 149 153 162 172 185 177 174 197 153 93 27 2 328 340 2 23 3 335 339 347 354 337 336 278 127 128 150 140 136 162 140 142 133 129 136 136 136 118 108 112 126 115 123 124 126 128 120 122 121 107 94 82 78 71 74 81 82 79 80 76 72 75 78 71 72
200 68 157 218 185 114 215 180 221 203 157 151 151 121 162 259 204 160 161 110 255 258 229 183 206 219 202 213 213 191 169 160 164 162 159 171 191 220 203 185 170 330 338 294 297 327 337 9 0 336 332 322 331 315 344 310 70 134 185 161 147 156 145 149 138 139 142 138 127 129 133 119 130 115 113 136 156 146 141 131 118 113 108 101 93 86 86 82 79 73 66 65 61 71 73 68 70
90 58 197 164 126 34 231 192 172 148 166 113 138 132 216 103 78 123 151 184 232 212 234 215 219 202 174 189 201 176 178 174 178 178 182 176 181 191 203 293 316 293 310 1 343 339 347 338 328 312 313 302 286 314 326 299 4 143 179 149 152 161 157 148 149 148 146 142 143 163 135 136 138 134 124 146 167 159 152 132 114 111 104 97 95 95 81 83 81 78 72 70 66 69 74 76 70
68 340 330 198 225 157 337 153 195 131 132 140 142 212 95 149 216 184 173 211 231 224 261 250 230 214 184 127 142 172 181 187 188 193 182 184 187 192 198 216 180 238 350 318 313 320 321 326 315 317 301 280 275 273 253 243 50 233 198 177 157 165 155 151 156 142 144 140 144 151 132 140 136 123 129 123 55 151 133 111 114 110 107 99 104 106 90 82 94 90 83 78 77 77 71 70 74
104 153 330 1 177 269 25 7 112 121 127 194 206 62 156 132 233 109 212 243 234 277 283 251 229 173 140 151 180 181 186 187 196 195 196 191 183 188 188 185 225 256 17 319 334 331 316 303 298 313 306 298 277 243 312 33 50 63 125 175 157 136 133 128 91 120 104 128 129 129 123 131 130 132 128 109 101 60 77 111 108 98 90 90 97 98 101 89 82 92 97 84 79 77 83 75 76
75 57 212 260 110 256 321 98 67 63 138 341 120 134 258 186 189 54 248 247 241 9 60 85 108 121 139 156 175 175 181 195 199 210 215 239 205 196 191 271 235 138 304 310 310 333 300 282 310 315 303 291 274 247 121 148 105 78 69 67 123 124 108 70 128 101 111 85 126 126 127 129 119 120 113 113 113 123 124 114 106 97 91 89 89 83 101 103 90 93 93 86 80 80 81 81 83
117 198 162 329 52 323 316 41 55 20 335 104 94 269 291 266 286 253 244 256 176 114 72 95 121 136 167 178 181 176 187 195 190 186 197 194 187 164 211 201 210 174 215 303 328 300 301 329 320 301 289 289 257 154 123 121 105 95 81 76 105 99 92 113 120 110 107 99 152 132 122 122 126 117 109 102 115 113 95 91 94 99 94 85 92 90 95 101 100 95 92 89 87 85 85 82 83
137 147 97 104 327 352 27 168 346 330 190 237 188 267 274 336 87 274 358 212 128 89 97 87 151 169 182 184 194 201 187 199 192 160 136 187 207 191 208 214 202 208 164 242 275 277 300 296 283 281 270 260 242 127 107 79 117 107 112 130 77 84 86 58 102 91 121 100 19 97 114 113 114 111 105 99 103 83 76 84 80 80 80 80 92 94 78 93 94 89 89 90 86 85 84 88 89
41 133 106 48 340 295 241 15 291 349 290 155 174 247 295 309 82 239 218 139 180 134 155 168 182 190 197 212 208 214 216 218 192 170 193 191 203 196 203 192 208 211 158 230 241 294 291 285 288 279 259 222 163 114 107 112 90 120 112 64 77 57 78 103 97 89 88 92 87 66 91 97 106 98 102 97 87 95 91 86 82 83 80 79 84 99 94 90 96 92 88 89 89 91 90 88 89
308 179 279 301 358 359 339 210 262 153 244 148 157 343 281 184 233 242 316 120 119 149 179 210 218 226 237 239 236 229 219 212 202 209 215 209 189 191 199 206 187 191 185 219 243 302 291 301 309 318 99 105 113 115 112 108 89 111 99 99 93 81 61 39 101 97 75 81 90 80 93 101 103 113 106 105 106 99 102 100 86 82 82 88 94 101 103 102 98 97 89 93 93 94 94 90 87
301 34 93 342 3 332 328 288 20 147 246 147 176 281 249 235 240 238 146 142 111 145 217 224 232 240 244 241 235 245 246 228 220 219 213 212 203 194 199 210 214 169 193 212 258 254 295 290 308 2 69 74 91 92 100 94 58 75 93 62 103 84 62 62 82 95 93 79 82 84 88 105 109 111 118 109 108 106 102 102 107 93 89 87 87 94 97 96 101 98 101 95 92 98 97 94 94
145 260 64 92 16 276 298 96 225 154 171 188 76 229 271 263 275 288 217 163 165 204 222 225 232 241 239 238 240 237 243 223 228 224 228 223 219 203 199 217 211 196 182 200 215 250 285 358 7 79 84 84 92 91 87 83 62 17 101 79 70 88 73 59 52 82 94 94 83 74 77 94 103 107 106 111 101 103 102 99 90 96 100 94 86 70 97 81 83 88 103 101 98 91 92 88 90
18 51 293 325 151 277 297 252 173 163 344 312 125 277 259 273 269 316 264 185 181 221 224 231 232 233 235 237 237 240 241 239 246 246 233 232 213 203 195 209 206 193 188 184 200 203 124 44 60 95 81 72 78 89 77 67 79 45 73 77 71 82 72 63 54 41 88 96 88 79 62 82 90 91 95 103 103 98 98 94 93 93 91 91 88 88 78 91 88 82 63 111 111 103 100 88 80
355 81 269 261 85 266 335 13 259 340 108 346 174 238 330 306 280 320 174 174 200 236 253 241 237 236 235 234 233 239 249 253 248 238 231 217 217 202 193 196 203 189 164 158 178 172 110 91 61 70 79 90 104 82 80 75 73 50 81 72 67 73 76 72 53 48 60 75 82 82 79 77 88 86 88 91 104 104 99 95 89 95 94 89 87 80 80 77 100 92 58 30 107 111 99 93 84
302 21 215 203 192 260 264 307 109 294 109 203 266 225 246 242 265 331 215 176 185 231 246 245 237 235 233 239 238 237 236 237 236 222 221 204 204 203 196 189 188 169 160 171 184 179 143 121 90 86 97 88 62 92 92 91 81 70 60 82 70 55 64 59 57 53 61 69 69 75 80 76 94 88 86 96 96 92 94 98 95 91 95 94 94 83 81 70 74 97 87 49 72 103 101 102 97
214 188 312 296 276 214 252 324 250 120 9 201 297 241 265 270 275 257 218 186 190 226 232 243 246 241 238 234 237 237 236 232 236 209 198 196 197 202 200 189 175 164 173 176 175 150 132 122 108 106 106 107 97 89 101 102 94 87 78 71 70 59 55 52 49 66 65 79 66 67 89 81 71 91 95 100 97 96 93 88 91 82 89 97 95 92 85 92 92 89 100 87 64 66 98 100 108
193 167 178 168 186 234 205 237 278 184 195 228 221 228 250 263 269 274 225 193 195 236 266 272 254 244 241 235 237 234 233 239 226 182 187 190 190 189 192 187 171 182 179 176 163 151 139 131 117 114 117 119 117 109 113 113 103 112 99 85 74 65 66 70 61 64 62 70 75 63 77 85 71 81 87 91 97 98 96 90 90 80 87 99 100 93 97 103 110 102 95 103 97 80 64 87 103
99 93 115 197 213 282 273 269 257 236 330 233 228 240 251 265 266 264 257 160 228 255 257 252 250 240 236 237 235 233 231 239 164 188 184 190 189 188 188 178 179 185 182 176 165 163 157 150 148 147 143 140 146 137 143 134 124 118 89 92 104 87 68 69 66 37 36 55 73 68 72 83 86 87 83 94 98 97 93 92 91 83 91 97 95 96 105 101 96 106 104 90 111 110 73 32 35
142 114 167 270 148 253 236 239 25 312 173 295 273 254 258 258 267 267 256 148 236 231 239 248 249 238 235 234 239 232 235 45 158 187 197 188 187 192 188 183 179 188 189 176 175 173 166 159 160 150 142 150 152 145 146 109 73 127 131 124 119 103 92 76 79 49 58 69 55 66 78 80 85 83 85 91 93 101 106 101 95 99 104 95 89 95 92 95 104 108 119 89 24 99 89 3 340
69 187 187 321 267 252 280 272 322 288 104 261 284 264 261 261 263 270 258 234 241 228 220 236 235 241 238 236 239 239 221 224 190 203 184 193 191 192 191 187 189 194 182 182 179 170 168 165 164 157 155 150 140 119 113 103 94 97 103 113 104 97 56 62 69 81 79 76 63 25 60 71 81 78 81 88 97 96 105 108 104 104 95 107 104 90 92 89 95 110 117 123 107 59 95 35 13
144 103 119 233 230 34 298 304 5 199 182 261 35 303 282 281 262 257 255 236 241 241 236 242 236 242 240 234 228 227 226 220 205 192 196 191 192 194 193 190 189 186 180 184 182 177 171 171 165 163 160 154 136 106 101 81 81 83 78 89 86 88 119 96 83 52 79 81 59 34 40 36 73 83 79 91 96 97 103 105 105 98 89 84 109 110 103 100 99 101 103 105 123 105 56 39 16
269 184 202 230 205 230 191 252 303 276 320 49 305 287 278 242 261 269 260 285 254 262 259 260 252 238 249 265 261 223 226 210 205 193 193 189 194 199 194 184 178 188 187 186 182 181 173 172 168 164 154 146 133 125 115 116 112 93 93 88 95 102 93 92 88 49 39 77 75 33 39 21 78 87 87 87 101 105 101 105 105 102 99 88 96 104 102 105 97 95 103 103 85 130 111 115 29
300 229 201 216 215 237 273 341 3 1 337 355 57 323 290 267 259 256 281 335 294 260 256 261 256 242 238 244 244 237 232 204 200 196 193 193 197 188 192 184 187 189 192 187 180 179 170 168 162 155 143 135 137 133 135 138 140 135 133 123 121 117 120 132 133 131 131 80 83 86 56 36 55 74 87 91 98 105 102 101 104 103 98 96 98 103 109 99 81 79 63 108 93 68 127 113 93
241 274 201 214 216 211 247 279 70 294 248 311 32 215 283 288 276 255 261 249 260 276 252 259 263 255 235 236 243 231 218 210 210 199 189 190 195 187 191 189 190 191 191 174 174 179 169 161 156 151 147 140 139 144 149 148 149 159 153 155 154 154 141 100 73 54 97 93 92 80 68 37 55 92 86 91 96 98 100 99 98 98 103 106 107 103 93 91 89 83 76 85 92 120 119 107 115
240 257 151 173 164 197 226 173 185 241 257 295 34 133 276 280 256 267 230 232 253 268 266 262 262 256 245 240 243 228 215 207 199 200 194 194 187 189 191 189 188 189 173 168 175 174 165 158 152 149 143 143 147 151 157 164 155 157 143 130 128 132 140 141 136 121 102 99 97 86 91 80 70 72 101 92 96 101 104 97 100 104 101 94 96 89 99 103 99 85 84 90 86 72 97 117 126
218 276 129 138 167 182 121 150 193 239 20 288 296 282 296 253 266 346 121 234 267 258 257 258 259 257 253 242 238 230 219 210 198 194 193 190 191 194 190 185 186 176 171 175 174 165 155 151 150 146 146 146 152 157 159 165 160 153 145 139 124 94 108 119 120 118 113 116 105 101 101 98 88 74 79 102 97 99 97 108 109 103 98 92 90 93 89 93 96 101 91 83 82 69 70 102 101
232 127 90 83 78 66 111 104 116 317 17 262 208 176 219 277 192 129 342 210 253 248 246 250 252 255 265 259 247 234 228 212 203 201 187 190 191 191 188 175 174 181 169 162 152 151 153 152 152 151 151 151 153 155 161 159 150 144 143 140 135 129 126 110 109 120 126 126 118 123 119 115 114 103 90 91 96 94 106 109 103 100 100 101 98 104 103 92 89 85 84 91 92 85 61 76 95
132 96 75 27 41 42 28 65 88 39 266 256 193 196 164 284 179 180 168 209 200 235 271 270 267 271 271 261 261 255 223 194 186 186 183 182 178 176 174 179 177 168 164 158 158 159 156 158 156 159 159 155 160 161 164 165 155 156 148 144 142 130 133 133 130 123 127 128 135 138 136 134 127 118 111 91 98 115 106 101 102 101 103 106 107 107 104 105 99 97 95 90 88 101 100 98 90
124 99 126 65 344 10 36 342 40 119 267 24 307 196 175 224 284 268 243 285 252 213 228 250 265 259 265 276 277 264 185 178 172 164 162 156 153 174 181 181 177 172 167 168 167 161 162 161 160 157 159 162 165 166 166 167 163 161 160 160 155 152 149 153 149 151 158 151 152 145 144 131 126 119 117 119 117 115 110 101 102 107 107 111 104 108 107 109 110 107 103 101 99 99 105 100 105
88 92 85 120 252 33 304 23 268 194 240 183 342 134 338 242 248 260 272 266 261 218 224 236 249 280 267 259 272 262 170 147 159 168 163 172 176 179 187 183 176 177 180 174 171 167 164 164 165 159 164 164 167 166 170 168 166 168 168 167 167 163 156 155 155 151 160 156 157 150 155 149 147 139 155 135 139 131 124 122 124 121 115 108 115 109 110 110 108 103 101 98 101 103 108 111 107
135 161 150 110 212 191 261 273 271 310 290 267 137 127 251 306 273 224 239 241 234 239 230 239 249 259 270 269 283 254 162 168 176 174 180 184 186 187 187 184 182 179 179 177 172 170 169 167 169 166 166 167 166 169 168 170 174 171 171 169 166 167 159 156 158 155 161 158 160 159 161 159 159 158 156 151 150 139 125 127 125 114 114 118 115 112 110 107 109 107 109 107 106 110 106 104 107
200 101 162 184 149 161 209 198 220 239 236 271 278 66 233 127 241 272 237 271 306 263 260 246 256 254 262 295 320 134 169 197 178 186 191 192 191 187 187 187 183 180 179 178 175 175 170 170 170 168 163 172 171 173 170 175 173 169 172 169 168 172 159 161 163 161 157 157 162 160 158 160 156 158 154 144 145 138 134 129 124 122 126 123 120 116 114 113 113 112 109 112 109 114 110 110 112
215 164 69 96 226 127 241 209 175 288 335 334 212 213 196 190 266 288 238 278 283 273 267 254 264 263 252 267 223 188 201 196 194 199 204 202 193 188 190 191 184 179 180 179 178 175 175 176 173 173 171 171 175 174 175 174 173 170 168 166 173 173 161 153 150 153 157 156 159 163 162 162 155 144 137 141 150 144 141 132 127 128 130 127 127 129 131 129 131 122 120 120 114 122 117 113 118
208 114 203 211 161 129 79 32 54 77 43 257 126 287 275 298 281 238 245 247 272 306 286 270 261 264 274 272 230 194 200 199 201 207 208 198 186 195 195 191 186 181 181 183 182 180 179 174 175 173 174 173 176 177 173 173 169 170 171 169 168 168 166 165 167 166 162 156 157 164 158 153 141 143 145 151 147 145 138 138 136 137 137 136 135 138 136 134 133 126 127 125 121 126 116 118 122
100 187 229 155 128 92 149 223 355 68 217 271 113 249 297 41 287 1 6 259 257 257 257 243 257 278 291 269 283 188 200 207 212 218 213 197 194 191 194 196 193 189 184 182 184 179 181 178 177 174 174 176 178 175 176 174 169 174 170 171 174 175 172 171 164 161 156 151 155 151 144 148 159 154 152 153 148 143 142 144 141 143 142 143 141 138 136 134 128 120 123 117 126 128 114 109 112
141 197 193 126 228 239 286 95 247 200 260 274 293 283 262 188 256 91 264 216 245 240 239 257 269 260 256 265 285 194 203 210 213 215 205 196 195 195 193 194 193 191 188 186 179 177 179 181 183 179 178 179 176 176 175 174 174 172 172 172 172 173 172 161 157 155 152 157 160 162 162 153 141 152 154 152 147 147 148 149 145 141 140 137 132 133 135 133 131 123 122 121 126 124 116 113 114
55 72 142 65 101 162 132 197 179 129 260 43 289 44 278 153 224 193 222 214 224 245 262 234 235 241 242 251 229 204 206 210 210 209 209 201 198 195 192 191 190 187 184 181 177 178 184 181 180 184 180 179 176 174 171 175 177 173 172 165 169 168 162 162 160 159 163 165 163 161 157 154 159 153 152 145 143 149 151 145 135 127 121 120 126 128 132 129 123 120 127 123 128 120 115 119 119
175 134 195 186 25 238 112 10 146 173 176 177 285 311 270 247 199 175 217 217 221 200 219 236 227 235 234 229 205 215 214 208 209 208 202 200 197 192 195 197 192 185 183 177 180 184 183 178 184 182 178 181 183 178 175 178 168 171 166 169 166 165 162 155 155 165 162 158 156 157 156 147 139 157 148 144 145 144 137 126 116 112 118 128 132 136 136 132 126 126 125 126 126 124 122 123 123
176 179 195 186 138 153 155 243 47 118 112 234 170 252 271 255 166 202 199 235 225 208 223 224 242 244 231 223 228 208 210 217 210 203 193 194 189 187 191 189 183 184 187 184 185 181 182 185 184 178 180 184 179 179 180 171 174 167 171 172 171 163 159 155 158 162 162 157 160 161 152 147 157 146 141 135 132 127 117 117 116 116 125 135 144 146 146 138 133 127 123 125 131 132 129 128 124